Weather History for Barking Sands, HI

Change the Weather History Date:

Monday, November 19, 2012

  Actual Average Record
Temperature  
Mean Temperature 76 °F -  
Max Temperature 82 °F 84 °F 86 °F (1954)
Min Temperature 69 °F 64 °F 62 °F (1949)
Cooling Degree Days 10    
Growing Degree Days 26 (Base 50)    
Moisture  
Dew Point 67 °F    
Average Humidity 78    
Maximum Humidity 100    
Minimum Humidity 49    
Precipitation  
Precipitation 0.00 in - - ()
Sea Level Pressure  
Sea Level Pressure 30.07 in    
Wind  
Wind Speed 4 mph (NNE)    
Max Wind Speed 9 mph    
Max Gust Speed -    
Visibility 10 miles    
Events      
Averages and records for this station are not official NWS values.
T = Trace of Precipitation, MM = Missing Value Source: NWS Daily Summary

Daily Weather History Graph

Daily Weather History Graph

Search for Another Location

Airport:

Trip Planner

Search our weather history database for the weather conditions in past years. The results will help you decide how hot, cold, wet, or windy it might be!

Date:

Astronomy

Nov. 19, 2012 Rise Set
Actual Time 6:54 AM HST 5:55 PM HST
Civil Twilight 6:30 AM HST 6:18 PM HST
Nautical Twilight 6:03 AM HST 6:46 PM HST
Astronomical Twilight 5:36 AM HST 7:12 PM HST
Moon 12:20 PM HST (11/19) No Moon Set
Length of Visible Light 11h 48m
Length of Day
11h 01m
Waxing Crescent, 43% of the Moon is Illuminated
Nov 19
Waxing Crescent
Nov 20
First Quarter
Nov 28
Full
Dec 6
Last Quarter
Dec 12
New

Hourly Weather History & Observations

Time (HST) Temp. Heat Index Dew Point Humidity Pressure Visibility Wind Dir Wind Speed Gust Speed Precip Events Conditions
12:56 AM 71.1 °F - 57.9 °F 63% 30.07 in 10.0 mi Calm Calm - N/A   Partly Cloudy
1:56 AM 71.1 °F - 71.1 °F 100% 30.07 in 10.0 mi Calm Calm - N/A   Mostly Cloudy
2:56 AM 70.0 °F - - N/A% 30.06 in 10.0 mi ENE 5.8 mph - N/A   Overcast
3:56 AM 71.1 °F - 71.1 °F 100% 30.05 in 10.0 mi ENE 4.6 mph - N/A   Clear
4:56 AM 70.0 °F - 57.9 °F 65% 30.05 in 10.0 mi East 4.6 mph - N/A   Clear
5:56 AM 70.0 °F - 64.0 °F 81% 30.06 in 10.0 mi East 3.5 mph - N/A   Clear
6:56 AM 69.1 °F - 69.1 °F 100% 30.08 in 10.0 mi East 4.6 mph - N/A   Clear
7:56 AM 73.9 °F - 55.9 °F 53% 30.09 in 10.0 mi East 4.6 mph - N/A   Clear
8:56 AM 78.1 °F - 73.0 °F 84% 30.10 in 10.0 mi Calm Calm - N/A   Clear
9:56 AM 79.0 °F - - N/A% 30.11 in 10.0 mi NW 6.9 mph - N/A   Clear
10:56 AM 80.1 °F - - N/A% 30.09 in 10.0 mi NW 6.9 mph - N/A   Clear
11:56 AM 80.1 °F - - N/A% 30.07 in 10.0 mi NW 6.9 mph - N/A   Clear
12:56 PM 81.0 °F - - N/A% 30.05 in 10.0 mi WNW 8.1 mph - N/A   Clear
1:56 PM 82.0 °F 82.7 °F 61.0 °F 49% 30.03 in 10.0 mi NW 9.2 mph - N/A   Clear
2:56 PM 82.0 °F 89.4 °F 75.9 °F 82% 30.02 in 10.0 mi NW 9.2 mph - N/A   Clear
3:56 PM 81.0 °F 84.9 °F 71.1 °F 72% 30.01 in 10.0 mi WNW 6.9 mph - N/A   Clear
4:56 PM 81.0 °F 84.9 °F 71.1 °F 72% 30.03 in 10.0 mi West 5.8 mph - N/A   Mostly Cloudy
5:56 PM 79.0 °F - 75.9 °F 90% 30.04 in 10.0 mi WNW 3.5 mph - N/A   Clear
6:56 PM 77.0 °F - 62.1 °F 60% 30.05 in 10.0 mi Calm Calm - N/A   Clear
7:56 PM 73.9 °F - 60.1 °F 62% 30.07 in 10.0 mi SE 3.5 mph - N/A   Clear
8:56 PM 73.0 °F - 68.0 °F 84% 30.09 in 10.0 mi SE 3.5 mph - N/A   Clear
9:56 PM 71.1 °F - 70.0 °F 96% 30.10 in 10.0 mi East 3.5 mph - N/A   Clear
10:56 PM 72.0 °F - 72.0 °F 100% 30.09 in 10.0 mi ESE 3.5 mph - N/A   Clear
11:56 PM 72.0 °F - 60.1 °F 66% 30.08 in 10.0 mi ENE 3.5 mph - N/A   Clear